JST83 YPDN-WADD

Flight info

Callsign JST83
Flight time 2h 13m
Altitude 39000
Route JULIE Q320 IDOTO M766 GABIT
Aircraft A21N/M-SDE2E3FGHIRWXY/LB1

Departure

Time 2026-04-29 12:37
Airport Darwin International Airport / RAAF Darwin (YPDN)

Arrival

Time 2026-04-29 14:50
Airport Denpasar I Gusti Ngurah Rai International Airport (WADD)
Time Latitude Longitude Altitude Speed Heading
2026-04-29 12:31 -12.41903 130.88252 102 ft 0 kts 199°
2026-04-29 12:34 -12.41889 130.88255 102 ft 3 kts 191°
2026-04-29 12:34 -12.41870 130.88259 99 ft 3 kts 191°
2026-04-29 12:35 -12.41852 130.88262 98 ft 3 kts 191°
2026-04-29 12:35 -12.41836 130.88265 98 ft 2 kts 178°
2026-04-29 12:35 -12.41821 130.88259 97 ft 2 kts 121°
2026-04-29 12:35 -12.41819 130.88257 98 ft 1 kts 103°
2026-04-29 12:36 -12.41796 130.88366 98 ft 27 kts 49°
2026-04-29 12:36 -12.41628 130.88476 98 ft 24 kts 10°
2026-04-29 12:36 -12.41581 130.88425 96 ft 34 kts 291°
2026-04-29 12:36 -12.41383 130.87850 104 ft 138 kts 289°
2026-04-29 12:37 -12.40980 130.86666 358 ft 208 kts 290°
2026-04-29 12:37 -12.40460 130.85127 1075 ft 245 kts 289°
2026-04-29 12:37 -12.39888 130.83425 2100 ft 271 kts 290°
2026-04-29 12:37 -12.39249 130.81530 3289 ft 287 kts 290°
2026-04-29 12:38 -12.38600 130.79599 4868 ft 289 kts 290°
2026-04-29 12:38 -12.37936 130.77629 6287 ft 297 kts 289°
2026-04-29 12:38 -12.37259 130.75617 7733 ft 300 kts 289°
2026-04-29 12:38 -12.36584 130.73615 9366 ft 296 kts 289°
2026-04-29 12:39 -12.35865 130.71637 10816 ft 301 kts 294°
2026-04-29 12:39 -12.34765 130.69715 11606 ft 330 kts 303°
2026-04-29 12:39 -12.33380 130.67735 12073 ft 364 kts 305°
2026-04-29 12:39 -12.31809 130.65572 12528 ft 393 kts 306°
2026-04-29 12:40 -12.30139 130.63268 13246 ft 411 kts 305°
2026-04-29 12:40 -12.28424 130.60888 14143 ft 420 kts 305°
2026-04-29 12:40 -12.26680 130.58455 15041 ft 427 kts 305°
2026-04-29 12:40 -12.24919 130.55994 15994 ft 432 kts 305°
2026-04-29 12:41 -12.23168 130.53476 16939 ft 437 kts 302°
2026-04-29 12:41 -12.21618 130.50789 17808 ft 441 kts 298°
2026-04-29 12:41 -12.20156 130.48014 18519 ft 446 kts 297°
2026-04-29 12:41 -12.18717 130.45236 19104 ft 451 kts 297°
2026-04-29 12:42 -12.17242 130.42388 19641 ft 455 kts 297°
2026-04-29 12:42 -12.15758 130.39528 20127 ft 457 kts 297°
2026-04-29 12:42 -12.14258 130.36645 20563 ft 461 kts 297°
2026-04-29 12:42 -12.12750 130.33748 21031 ft 464 kts 297°
2026-04-29 12:43 -12.11229 130.30829 21488 ft 467 kts 297°
2026-04-29 12:43 -12.09697 130.27892 21952 ft 470 kts 297°
2026-04-29 12:43 -12.08158 130.24941 22414 ft 472 kts 297°
2026-04-29 12:43 -12.06607 130.21968 22840 ft 475 kts 297°
2026-04-29 12:44 -12.05047 130.18981 23234 ft 478 kts 297°
2026-04-29 12:44 -12.03500 130.16017 23605 ft 481 kts 297°
2026-04-29 12:44 -12.01919 130.12992 23925 ft 483 kts 297°
2026-04-29 12:44 -12.00336 130.09962 24236 ft 485 kts 297°
2026-04-29 12:45 -11.98746 130.06921 24551 ft 486 kts 297°
2026-04-29 12:45 -11.97151 130.03871 24868 ft 488 kts 297°
2026-04-29 12:45 -11.95549 130.00808 25187 ft 489 kts 297°
2026-04-29 12:45 -11.93944 129.97741 25505 ft 491 kts 297°
2026-04-29 12:46 -11.92331 129.94660 25830 ft 492 kts 297°
2026-04-29 12:46 -11.90738 129.91617 26223 ft 492 kts 297°
2026-04-29 12:46 -11.89129 129.88545 26739 ft 489 kts 297°
2026-04-29 12:46 -11.87528 129.85491 27295 ft 486 kts 296°
2026-04-29 12:47 -11.85937 129.82456 27884 ft 484 kts 296°
2026-04-29 12:47 -11.84355 129.79438 28461 ft 482 kts 296°
2026-04-29 12:47 -11.82774 129.76423 29007 ft 481 kts 296°
2026-04-29 12:47 -11.81198 129.73416 29561 ft 479 kts 296°
2026-04-29 12:48 -11.79818 129.70336 30095 ft 475 kts 288°
2026-04-29 12:48 -11.78859 129.67124 30537 ft 472 kts 283°
2026-04-29 12:48 -11.78070 129.63888 31003 ft 469 kts 282°
2026-04-29 12:48 -11.77364 129.60684 31314 ft 471 kts 281°
2026-04-29 12:49 -11.76675 129.57404 31530 ft 474 kts 281°
2026-04-29 12:49 -11.75989 129.54116 31910 ft 473 kts 281°
2026-04-29 12:49 -11.75298 129.50838 32350 ft 471 kts 282°
2026-04-29 12:49 -11.74602 129.47579 32800 ft 469 kts 282°
2026-04-29 12:50 -11.73899 129.44336 33245 ft 467 kts 282°
2026-04-29 12:50 -11.73195 129.41113 33685 ft 465 kts 282°
2026-04-29 12:50 -11.72499 129.37944 34104 ft 463 kts 283°
2026-04-29 12:50 -11.71796 129.34749 34444 ft 461 kts 283°
2026-04-29 12:51 -11.71094 129.31561 34781 ft 460 kts 283°
2026-04-29 12:51 -11.70393 129.28382 35102 ft 459 kts 283°
2026-04-29 12:51 -11.69693 129.25205 35414 ft 458 kts 283°
2026-04-29 12:51 -11.68994 129.22033 35723 ft 458 kts 283°
2026-04-29 12:52 -11.68296 129.18870 36033 ft 457 kts 283°
2026-04-29 12:52 -11.67600 129.15710 36334 ft 456 kts 283°
2026-04-29 12:52 -11.66902 129.12548 36513 ft 459 kts 283°
2026-04-29 12:52 -11.66200 129.09370 36791 ft 458 kts 283°
2026-04-29 12:53 -11.65511 129.06251 37107 ft 457 kts 283°
2026-04-29 12:53 -11.64813 129.03091 37397 ft 456 kts 283°
2026-04-29 12:53 -11.64116 128.99939 37692 ft 456 kts 283°
2026-04-29 12:53 -11.63419 128.96789 37983 ft 455 kts 284°
2026-04-29 12:54 -11.62722 128.93643 38277 ft 454 kts 284°
2026-04-29 12:54 -11.62026 128.90498 38575 ft 454 kts 284°
2026-04-29 12:54 -11.61331 128.87366 38845 ft 453 kts 284°
2026-04-29 12:54 -11.60640 128.84246 39048 ft 449 kts 284°
2026-04-29 12:55 -11.59952 128.81144 38995 ft 448 kts 284°
2026-04-29 12:55 -11.58582 128.74978 38979 ft 450 kts 284°
2026-04-29 12:56 -11.57197 128.68745 38977 ft 450 kts 284°
2026-04-29 12:56 -11.55811 128.62518 38977 ft 450 kts 284°
2026-04-29 12:57 -11.54427 128.56306 38977 ft 449 kts 284°
2026-04-29 12:57 -11.53053 128.50140 38977 ft 449 kts 284°
2026-04-29 12:58 -11.51669 128.43941 38980 ft 449 kts 284°
2026-04-29 12:58 -11.50282 128.37734 38980 ft 449 kts 284°
2026-04-29 12:59 -11.48894 128.31529 38980 ft 449 kts 284°
2026-04-29 12:59 -11.47505 128.25327 38981 ft 449 kts 284°
2026-04-29 13:00 -11.46124 128.19164 38980 ft 449 kts 284°
2026-04-29 13:00 -11.44734 128.12969 38982 ft 448 kts 284°
2026-04-29 13:01 -11.43444 128.06744 38977 ft 449 kts 278°
2026-04-29 13:01 -11.43323 128.00374 38977 ft 451 kts 269°
2026-04-29 13:02 -11.43682 127.93983 38978 ft 452 kts 268°
2026-04-29 13:02 -11.44128 127.87637 38980 ft 452 kts 268°
2026-04-29 13:03 -11.44566 127.81255 38979 ft 452 kts 268°
2026-04-29 13:03 -11.44984 127.74865 38982 ft 452 kts 268°
2026-04-29 13:04 -11.45392 127.68478 38979 ft 451 kts 268°
2026-04-29 13:04 -11.45798 127.62098 38980 ft 451 kts 268°
2026-04-29 13:05 -11.46199 127.55765 38978 ft 451 kts 268°
2026-04-29 13:05 -11.46603 127.49391 38976 ft 451 kts 268°
2026-04-29 13:06 -11.47005 127.43020 38978 ft 450 kts 268°
2026-04-29 13:06 -11.47405 127.36653 38976 ft 450 kts 268°
2026-04-29 13:07 -11.47804 127.30283 38975 ft 450 kts 268°
2026-04-29 13:07 -11.48199 127.23958 38973 ft 450 kts 268°
2026-04-29 13:08 -11.48596 127.17586 38980 ft 450 kts 268°
2026-04-29 13:08 -11.48991 127.11217 38979 ft 450 kts 268°
2026-04-29 13:09 -11.49384 127.04848 38980 ft 450 kts 268°
2026-04-29 13:09 -11.49774 126.98517 38981 ft 450 kts 268°
2026-04-29 13:10 -11.50165 126.92147 38978 ft 451 kts 268°
2026-04-29 13:10 -11.50555 126.85766 38978 ft 451 kts 268°
2026-04-29 13:11 -11.50943 126.79391 38978 ft 451 kts 268°
2026-04-29 13:11 -11.51328 126.73055 38978 ft 451 kts 268°
2026-04-29 13:12 -11.51659 126.66681 38979 ft 449 kts 272°
2026-04-29 13:12 -11.50916 126.60390 38979 ft 447 kts 282°
2026-04-29 13:13 -11.49668 126.54185 38971 ft 447 kts 284°
2026-04-29 13:13 -11.48319 126.47988 38973 ft 448 kts 284°
2026-04-29 13:14 -11.46980 126.41819 38977 ft 449 kts 284°
2026-04-29 13:14 -11.45648 126.35604 38977 ft 449 kts 283°
2026-04-29 13:15 -11.44322 126.29388 38979 ft 449 kts 283°
2026-04-29 13:15 -11.42997 126.23173 38979 ft 449 kts 283°
2026-04-29 13:16 -11.41669 126.16953 38978 ft 449 kts 283°
2026-04-29 13:16 -11.40349 126.10784 38976 ft 449 kts 283°
2026-04-29 13:17 -11.39019 126.04574 38975 ft 449 kts 283°
2026-04-29 13:17 -11.37687 125.98362 38974 ft 449 kts 283°
2026-04-29 13:18 -11.36363 125.92190 38974 ft 449 kts 283°
2026-04-29 13:18 -11.35028 125.85980 38971 ft 449 kts 283°
2026-04-29 13:19 -11.33692 125.79766 38975 ft 449 kts 284°
2026-04-29 13:19 -11.32355 125.73556 38973 ft 449 kts 284°
2026-04-29 13:20 -11.31023 125.67378 38974 ft 450 kts 283°
2026-04-29 13:20 -11.29678 125.61143 38974 ft 451 kts 283°
2026-04-29 13:21 -11.28330 125.54902 38971 ft 451 kts 284°
2026-04-29 13:21 -11.26981 125.48664 38975 ft 451 kts 284°
2026-04-29 13:22 -11.25633 125.42433 38968 ft 451 kts 283°
2026-04-29 13:22 -11.24292 125.36243 38969 ft 450 kts 284°
2026-04-29 13:23 -11.22942 125.30021 38968 ft 450 kts 284°
2026-04-29 13:23 -11.21591 125.23799 38968 ft 450 kts 284°
2026-04-29 13:24 -11.20237 125.17569 38969 ft 450 kts 283°
2026-04-29 13:24 -11.18893 125.11392 38968 ft 450 kts 284°
2026-04-29 13:25 -11.17539 125.05176 38967 ft 449 kts 284°
2026-04-29 13:25 -11.15506 124.95855 38966 ft 450 kts 284°
2026-04-29 13:26 -11.14157 124.89675 38968 ft 450 kts 284°
2026-04-29 13:26 -11.12795 124.83447 38968 ft 451 kts 284°
2026-04-29 13:27 -11.11429 124.77207 38969 ft 452 kts 284°
2026-04-29 13:27 -11.10061 124.70960 38970 ft 452 kts 284°
2026-04-29 13:28 -11.08701 124.64756 38968 ft 452 kts 284°
2026-04-29 13:28 -11.07335 124.58533 38968 ft 451 kts 284°
2026-04-29 13:29 -11.05953 124.52306 38966 ft 451 kts 284°
2026-04-29 13:29 -11.04555 124.46077 38964 ft 451 kts 284°
2026-04-29 13:30 -11.03165 124.39894 38968 ft 451 kts 284°
2026-04-29 13:30 -11.01767 124.33678 38968 ft 450 kts 284°
2026-04-29 13:31 -11.00371 124.27466 38966 ft 450 kts 284°
2026-04-29 13:31 -10.98971 124.21248 38966 ft 451 kts 284°
2026-04-29 13:32 -10.97581 124.15077 38966 ft 450 kts 284°
2026-04-29 13:32 -10.96181 124.08867 38962 ft 450 kts 284°
2026-04-29 13:33 -10.94780 124.02660 38962 ft 450 kts 284°
2026-04-29 13:33 -10.93377 123.96451 38962 ft 451 kts 284°
2026-04-29 13:34 -10.91981 123.90277 38961 ft 451 kts 284°
2026-04-29 13:34 -10.90576 123.84070 38960 ft 450 kts 284°
2026-04-29 13:35 -10.89169 123.77864 38957 ft 450 kts 284°
2026-04-29 13:35 -10.87761 123.71655 38959 ft 450 kts 284°
2026-04-29 13:36 -10.86362 123.65493 38966 ft 450 kts 284°
2026-04-29 13:36 -10.84955 123.59302 38965 ft 449 kts 284°
2026-04-29 13:37 -10.83548 123.53116 38966 ft 449 kts 284°
2026-04-29 13:37 -10.82377 123.47975 38965 ft 449 kts 284°
2026-04-29 13:38 -10.80968 123.41792 38967 ft 449 kts 284°
2026-04-29 13:38 -10.79329 123.34606 38966 ft 449 kts 284°
2026-04-29 13:39 -10.78155 123.29468 38966 ft 449 kts 284°
2026-04-29 13:39 -10.76742 123.23284 38966 ft 449 kts 284°
2026-04-29 13:40 -10.75329 123.17107 38969 ft 448 kts 284°
2026-04-29 13:40 -10.73916 123.10935 38963 ft 448 kts 284°
2026-04-29 13:41 -10.72510 123.04802 38966 ft 448 kts 284°
2026-04-29 13:41 -10.70855 122.97592 38966 ft 448 kts 284°
2026-04-29 13:42 -10.69677 122.92462 38964 ft 448 kts 284°
2026-04-29 13:42 -10.68259 122.86292 38962 ft 448 kts 284°
2026-04-29 13:43 -10.66841 122.80132 38966 ft 447 kts 284°
2026-04-29 13:43 -10.65204 122.73023 38965 ft 447 kts 284°
2026-04-29 13:44 -10.64016 122.67869 38966 ft 447 kts 284°
2026-04-29 13:44 -10.62605 122.61757 38966 ft 447 kts 284°
2026-04-29 13:45 -10.61185 122.55606 38963 ft 447 kts 284°
2026-04-29 13:45 -10.59763 122.49455 38963 ft 447 kts 284°
2026-04-29 13:46 -10.58341 122.43309 38966 ft 447 kts 284°
2026-04-29 13:46 -10.56927 122.37203 38966 ft 447 kts 284°
2026-04-29 13:47 -10.55503 122.31061 38966 ft 446 kts 284°
2026-04-29 13:47 -10.54078 122.24920 38966 ft 446 kts 284°
2026-04-29 13:48 -10.52651 122.18776 38964 ft 448 kts 284°
2026-04-29 13:48 -10.51218 122.12612 38963 ft 448 kts 284°
2026-04-29 13:49 -10.49794 122.06488 38959 ft 448 kts 284°
2026-04-29 13:49 -10.48358 122.00321 38960 ft 449 kts 284°
2026-04-29 13:50 -10.46920 121.94154 38964 ft 449 kts 284°
2026-04-29 13:50 -10.45482 121.87988 38964 ft 449 kts 284°
2026-04-29 13:51 -10.44051 121.81862 38963 ft 449 kts 284°
2026-04-29 13:51 -10.42611 121.75701 38963 ft 448 kts 284°
2026-04-29 13:52 -10.41169 121.69539 38958 ft 448 kts 284°
2026-04-29 13:52 -10.39726 121.63375 38958 ft 448 kts 284°
2026-04-29 13:53 -10.38282 121.57213 38961 ft 448 kts 284°
2026-04-29 13:53 -10.36847 121.51095 38961 ft 448 kts 285°
2026-04-29 13:54 -10.35400 121.44934 38959 ft 448 kts 285°
2026-04-29 13:54 -10.33954 121.38779 38961 ft 448 kts 285°
2026-04-29 13:55 -10.32505 121.32618 38956 ft 448 kts 285°
2026-04-29 13:55 -10.31063 121.26493 38958 ft 450 kts 285°
2026-04-29 13:56 -10.29606 121.20310 38960 ft 451 kts 285°
2026-04-29 13:56 -10.28145 121.14115 38958 ft 451 kts 285°
2026-04-29 13:57 -10.26682 121.07920 38961 ft 451 kts 285°
2026-04-29 13:57 -10.25229 121.01767 38963 ft 451 kts 285°
2026-04-29 13:58 -10.23764 120.95573 38967 ft 451 kts 285°
2026-04-29 13:58 -10.22298 120.89378 38966 ft 452 kts 285°
2026-04-29 13:59 -10.20829 120.83181 38964 ft 452 kts 285°
2026-04-29 13:59 -10.19369 120.77022 38966 ft 452 kts 285°
2026-04-29 14:00 -10.17898 120.70824 38971 ft 452 kts 285°
2026-04-29 14:00 -10.16426 120.64627 38970 ft 452 kts 285°
2026-04-29 14:01 -10.14953 120.58428 38978 ft 452 kts 285°
2026-04-29 14:01 -10.13479 120.52233 38977 ft 452 kts 285°
2026-04-29 14:02 -10.12012 120.46074 38983 ft 452 kts 285°
2026-04-29 14:02 -10.10534 120.39877 38979 ft 452 kts 285°
2026-04-29 14:03 -10.09052 120.33667 38987 ft 453 kts 285°
2026-04-29 14:03 -10.07567 120.27447 38982 ft 454 kts 285°
2026-04-29 14:04 -10.06090 120.21268 38989 ft 454 kts 285°
2026-04-29 14:04 -10.04602 120.15045 38980 ft 454 kts 285°
2026-04-29 14:05 -10.03112 120.08822 38982 ft 454 kts 285°
2026-04-29 14:05 -10.01621 120.02600 38976 ft 454 kts 285°
2026-04-29 14:06 -10.00144 119.96423 38976 ft 454 kts 285°
2026-04-29 14:06 -9.98661 119.90205 38972 ft 454 kts 285°
2026-04-29 14:07 -9.97178 119.83985 38968 ft 454 kts 285°
2026-04-29 14:07 -9.95694 119.77770 38972 ft 453 kts 285°
2026-04-29 14:08 -9.94214 119.71574 38976 ft 452 kts 285°
2026-04-29 14:08 -9.92741 119.65417 38968 ft 452 kts 285°
2026-04-29 14:09 -9.91257 119.59222 38961 ft 452 kts 285°
2026-04-29 14:09 -9.89773 119.53030 38970 ft 452 kts 285°
2026-04-29 14:10 -9.88284 119.46819 38961 ft 454 kts 285°
2026-04-29 14:10 -9.86798 119.40635 38961 ft 455 kts 284°
2026-04-29 14:11 -9.85301 119.34403 38958 ft 455 kts 284°
2026-04-29 14:11 -9.83803 119.28172 38958 ft 455 kts 284°
2026-04-29 14:12 -9.82303 119.21938 38960 ft 456 kts 285°
2026-04-29 14:12 -9.80807 119.15727 38958 ft 457 kts 285°
2026-04-29 14:13 -9.79296 119.09463 38952 ft 458 kts 285°
2026-04-29 14:13 -9.77783 119.03193 38952 ft 458 kts 285°
2026-04-29 14:14 -9.76270 118.96927 38948 ft 458 kts 285°
2026-04-29 14:14 -9.74755 118.90656 38950 ft 458 kts 285°
2026-04-29 14:15 -9.73246 118.84419 38950 ft 459 kts 285°
2026-04-29 14:15 -9.71726 118.78140 38947 ft 459 kts 285°
2026-04-29 14:16 -9.70203 118.71857 38947 ft 459 kts 285°
2026-04-29 14:16 -9.68679 118.65573 38944 ft 459 kts 285°
2026-04-29 14:17 -9.67167 118.59341 38944 ft 458 kts 285°
2026-04-29 14:17 -9.65652 118.53103 38944 ft 458 kts 285°
2026-04-29 14:18 -9.64128 118.46838 38944 ft 458 kts 285°
2026-04-29 14:18 -9.62604 118.40574 38944 ft 458 kts 285°
2026-04-29 14:19 -9.61060 118.34240 38944 ft 469 kts 285°
2026-04-29 14:19 -9.60288 118.31070 39592 ft 456 kts 285°
2026-04-29 14:19 -9.59544 118.27993 40404 ft 442 kts 285°
2026-04-29 14:20 -9.58830 118.25018 41192 ft 428 kts 284°
2026-04-29 14:20 -9.58151 118.22165 41960 ft 415 kts 284°
2026-04-29 14:20 -9.57462 118.19285 40411 ft 437 kts 285°
2026-04-29 14:20 -9.56666 118.16188 38734 ft 463 kts 287°
2026-04-29 14:21 -9.55839 118.13083 38710 ft 447 kts 287°
2026-04-29 14:21 -9.55081 118.10052 38888 ft 444 kts 285°
2026-04-29 14:21 -9.53618 118.03931 38939 ft 455 kts 285°
2026-04-29 14:22 -9.52130 117.97709 38942 ft 454 kts 285°
2026-04-29 14:22 -9.50620 117.91494 38940 ft 454 kts 285°
2026-04-29 14:23 -9.49099 117.85284 38942 ft 454 kts 285°
2026-04-29 14:23 -9.47584 117.79117 38942 ft 454 kts 286°
2026-04-29 14:24 -9.46058 117.72906 38941 ft 454 kts 285°
2026-04-29 14:24 -9.44533 117.66699 38942 ft 454 kts 285°
2026-04-29 14:25 -9.43006 117.60497 38941 ft 454 kts 287°
2026-04-29 14:25 -9.42160 117.57466 38839 ft 451 kts 288°
2026-04-29 14:25 -9.41254 117.54445 38617 ft 448 kts 289°
2026-04-29 14:26 -9.40338 117.51424 38349 ft 449 kts 289°
2026-04-29 14:26 -9.39420 117.48399 38064 ft 450 kts 288°
2026-04-29 14:26 -9.38502 117.45366 37813 ft 452 kts 288°
2026-04-29 14:26 -9.37580 117.42313 37555 ft 454 kts 288°
2026-04-29 14:27 -9.36657 117.39253 37273 ft 453 kts 288°
2026-04-29 14:27 -9.35755 117.36261 36744 ft 448 kts 288°
2026-04-29 14:27 -9.34849 117.33258 36030 ft 446 kts 288°
2026-04-29 14:28 -9.33041 117.27267 34545 ft 444 kts 288°
2026-04-29 14:28 -9.32145 117.24302 33764 ft 445 kts 288°
2026-04-29 14:28 -9.31246 117.21324 32917 ft 444 kts 287°
2026-04-29 14:28 -9.30347 117.18350 32129 ft 443 kts 287°
2026-04-29 14:29 -9.29443 117.15357 31291 ft 446 kts 287°
2026-04-29 14:29 -9.28532 117.12342 30402 ft 450 kts 286°
2026-04-29 14:29 -9.27611 117.09297 29439 ft 455 kts 286°
2026-04-29 14:29 -9.26680 117.06217 28415 ft 460 kts 286°
2026-04-29 14:30 -9.25740 117.03107 27428 ft 464 kts 286°
2026-04-29 14:30 -9.24803 117.00013 26349 ft 470 kts 286°
2026-04-29 14:30 -9.23840 116.96830 25270 ft 475 kts 287°
2026-04-29 14:30 -9.22865 116.93613 24254 ft 481 kts 287°
2026-04-29 14:31 -9.21875 116.90333 23943 ft 494 kts 287°
2026-04-29 14:31 -9.20862 116.86974 23719 ft 502 kts 287°
2026-04-29 14:31 -9.19834 116.83583 23493 ft 505 kts 287°
2026-04-29 14:31 -9.18801 116.80189 23229 ft 504 kts 287°
2026-04-29 14:32 -9.17772 116.76806 22979 ft 503 kts 287°
2026-04-29 14:32 -9.16743 116.73422 22719 ft 501 kts 287°
2026-04-29 14:32 -9.15720 116.70056 22470 ft 500 kts 287°
2026-04-29 14:32 -9.14711 116.66735 22223 ft 500 kts 287°
2026-04-29 14:33 -9.13691 116.63379 21979 ft 497 kts 287°
2026-04-29 14:33 -9.12681 116.60056 21725 ft 493 kts 287°
2026-04-29 14:33 -9.11673 116.56743 21482 ft 491 kts 287°
2026-04-29 14:33 -9.10672 116.53452 21243 ft 489 kts 287°
2026-04-29 14:34 -9.09675 116.50174 21000 ft 487 kts 287°
2026-04-29 14:34 -9.08680 116.46905 20762 ft 485 kts 287°
2026-04-29 14:34 -9.07733 116.43795 20536 ft 483 kts 288°
2026-04-29 14:34 -9.06722 116.40478 20302 ft 482 kts 288°
2026-04-29 14:35 -9.05737 116.37245 20070 ft 480 kts 288°
2026-04-29 14:35 -9.04756 116.34025 19833 ft 478 kts 288°
2026-04-29 14:35 -9.03779 116.30823 19629 ft 476 kts 288°
2026-04-29 14:35 -9.02806 116.27631 19398 ft 474 kts 288°
2026-04-29 14:36 -9.01848 116.24492 19158 ft 472 kts 288°
2026-04-29 14:36 -9.00891 116.21356 18635 ft 459 kts 288°
2026-04-29 14:36 -8.99963 116.18311 17721 ft 449 kts 288°
2026-04-29 14:36 -8.99053 116.15330 16854 ft 437 kts 288°
2026-04-29 14:37 -8.98167 116.12430 16059 ft 426 kts 288°
2026-04-29 14:37 -8.97309 116.09625 15267 ft 422 kts 288°
2026-04-29 14:37 -8.96443 116.06795 14463 ft 420 kts 288°
2026-04-29 14:37 -8.95588 116.04000 13670 ft 412 kts 288°
2026-04-29 14:38 -8.94744 116.01243 12809 ft 409 kts 288°
2026-04-29 14:38 -8.93911 115.98517 12011 ft 402 kts 288°
2026-04-29 14:38 -8.93086 115.95824 11222 ft 399 kts 288°
2026-04-29 14:38 -8.92276 115.93177 10570 ft 387 kts 288°
2026-04-29 14:39 -8.91509 115.90671 10459 ft 358 kts 288°
2026-04-29 14:39 -8.90802 115.88361 10393 ft 331 kts 288°
2026-04-29 14:39 -8.90154 115.86241 10298 ft 310 kts 288°
2026-04-29 14:39 -8.89533 115.84213 10161 ft 295 kts 288°
2026-04-29 14:40 -8.88937 115.82269 10028 ft 286 kts 288°
2026-04-29 14:40 -8.88344 115.80338 9872 ft 289 kts 288°
2026-04-29 14:40 -8.87750 115.78404 9445 ft 287 kts 288°
2026-04-29 14:40 -8.87161 115.76487 9036 ft 283 kts 288°
2026-04-29 14:41 -8.86582 115.74599 8676 ft 279 kts 288°
2026-04-29 14:41 -8.86012 115.72739 8320 ft 275 kts 288°
2026-04-29 14:41 -8.85446 115.70894 7966 ft 275 kts 288°
2026-04-29 14:41 -8.84888 115.69076 7617 ft 274 kts 288°
2026-04-29 14:42 -8.84325 115.67242 7272 ft 272 kts 288°
2026-04-29 14:42 -8.83765 115.65417 6922 ft 271 kts 288°
2026-04-29 14:42 -8.83207 115.63601 6570 ft 270 kts 288°
2026-04-29 14:42 -8.82650 115.61788 6212 ft 270 kts 288°
2026-04-29 14:43 -8.82092 115.59971 5849 ft 270 kts 288°
2026-04-29 14:43 -8.81537 115.58166 5502 ft 269 kts 288°
2026-04-29 14:43 -8.80984 115.56366 5160 ft 268 kts 288°
2026-04-29 14:43 -8.80442 115.54599 4817 ft 265 kts 288°
2026-04-29 14:44 -8.79906 115.52856 4478 ft 263 kts 288°
2026-04-29 14:44 -8.79363 115.51091 4138 ft 262 kts 288°
2026-04-29 14:44 -8.78822 115.49332 3801 ft 262 kts 288°
2026-04-29 14:44 -8.78284 115.47583 3466 ft 260 kts 288°
2026-04-29 14:45 -8.77750 115.45847 3126 ft 258 kts 288°
2026-04-29 14:45 -8.77218 115.44117 2787 ft 258 kts 288°
2026-04-29 14:45 -8.76684 115.42385 2457 ft 258 kts 288°
2026-04-29 14:45 -8.76159 115.40680 2126 ft 257 kts 288°
2026-04-29 14:46 -8.75616 115.38920 1929 ft 263 kts 287°
2026-04-29 14:46 -8.75093 115.37223 1915 ft 241 kts 287°
2026-04-29 14:46 -8.74619 115.35680 1973 ft 218 kts 287°
2026-04-29 14:46 -8.74248 115.34247 1991 ft 207 kts 277°
2026-04-29 14:47 -8.74205 115.32843 2047 ft 201 kts 267°
2026-04-29 14:47 -8.74272 115.31416 2011 ft 205 kts 266°
2026-04-29 14:47 -8.74335 115.29972 1991 ft 207 kts 266°
2026-04-29 14:47 -8.74389 115.28516 1957 ft 207 kts 267°
2026-04-29 14:48 -8.74439 115.27071 1726 ft 206 kts 268°
2026-04-29 14:48 -8.74494 115.25627 1440 ft 206 kts 267°
2026-04-29 14:48 -8.74552 115.24183 1165 ft 204 kts 266°
2026-04-29 14:48 -8.74606 115.22776 906 ft 203 kts 266°
2026-04-29 14:49 -8.74662 115.21342 663 ft 203 kts 266°
2026-04-29 14:49 -8.74715 115.19970 416 ft 183 kts 266°
2026-04-29 14:49 -8.74760 115.18781 192 ft 162 kts 264°
2026-04-29 14:49 -8.74794 115.17697 37 ft 147 kts 265°
2026-04-29 14:50 -8.74843 115.16818 23 ft 79 kts 268°
2026-04-29 14:50 -8.74818 115.16387 26 ft 40 kts 290°
2026-04-29 14:50 -8.74712 115.16282 23 ft 17 kts 11°